Location: *
(45.5828°N, 25.6225°E)
Time: 09:20:42
(UTC+00:00)

Daily predictions for brighter satellites

Satellite Brightness Start Highest point End
(mag) Time Altitude Azimuth Time Altitude Azimuth Time Altitude Azimuth
SL-16 R/B 3.0 17:03:56 10° SSE 17:08:39 28° ESE 17:13:23 10° NE
Cosmos 2333 Rocket 3.6 17:03:17 10° SW 17:08:43 44° WNW 17:14:08 10° NNE
NOSS 2-1 (E) 3.3 17:05:55 10° SW 17:09:18 71° NW 17:13:00 10° NE
Cosmos 332 Rocket 3.8 17:05:08 10° NNW 17:10:04 74° ENE 17:14:58 10° SSE
Meteor 2-21 Rocket 4.4 17:04:40 10° N 17:10:45 80° E 17:16:49 10° SSE
STARLINK-1225 4.0 17:07:11 10° SSW 17:11:00 43° SE 17:14:50 10° ENE
Meteor 2-16 Rocket 4.5 17:05:18 10° N 17:11:27 68° E 17:17:35 10° SSE
CSL-04 Rocket 4.0 17:07:46 10° S 17:13:05 73° WSW 17:18:23 10° NNW
STARLINK-1203 3.8 17:09:28 10° SW 17:13:16 48° SE 17:17:04 10° ENE
Cosmos 1892 Rocket 3.7 17:09:53 10° N 17:14:19 57° ENE 17:18:43 10° SSE
STARLINK-1072 4.0 17:11:03 10° NW 17:14:58 51° NNE 17:18:53 10° ESE
STARLINK-1230 3.9 17:11:44 10° SSW 17:15:37 46° SE 17:19:29 10° ENE
ARGOS Delta rocket 4.3 17:10:44 10° SSE 17:15:38 52° ENE 17:20:49 10° N
BREEZE-M DEB (TANK) 3.7 17:08:08 10° SW 17:15:48 36° SSE 17:18:46 10° E
STARLINK-1096 3.9 17:15:29 10° NW 17:19:26 54° NNE 17:23:18 10° ESE
STARLINK-1243 3.8 17:16:23 10° SW 17:20:17 50° SE 17:24:12 10° ENE
Cosmos 1626 3.0 17:18:07 10° NNE 17:21:24 29° ENE 17:24:40 10° SE
Okean 1-7 Rocket 3.6 17:17:36 10° N 17:21:58 58° ENE 17:26:16 10° SSE
USA 186 2.6 17:19:09 10° SE 17:22:19 35° ENE 17:25:28 10° N
STARLINK-1234 2.9 17:19:53 10° WSW 17:22:52 75° NNW 17:25:52 10° NE
STARLINK-1079 3.8 17:19:57 10° NW 17:23:54 57° NNE 17:27:36 12° ESE
STARLINK-1236 3.7 17:20:59 10° SW 17:24:55 54° SE 17:28:53 10° ENE
H-2A R/B 2.2 17:20:20 10° SSE 17:25:31 55° ENE 17:30:35 10° N
SJ-11-01 4.3 17:21:43 10° SSE 17:26:23 73° ENE 17:31:06 10° N
STARLINK-1116 3.7 17:24:24 10° NW 17:28:23 61° NNE 17:31:54 13° ESE
Cosmos 1745 Rocket 4.0 17:22:29 10° N 17:28:51 84° E 17:35:06 10° S
USA 234 3.5 17:23:07 10° ENE 17:29:22 46° SE 17:35:36 10° SSW
NOSS 0 Rocket 4.4 17:24:16 10° SW 17:30:27 67° WNW 17:36:39 10° NNE
Cosmos 2297 3.9 17:27:35 10° NNW 17:33:08 54° ENE 17:38:42 10° SE
STARLINK-1269 3.5 17:30:18 10° SW 17:34:17 64° SE 17:38:18 10° ENE
ADEOS Rocket 3.8 17:27:45 10° N 17:34:32 62° WNW 17:40:34 10° SSW
Cosmos 1544 Rocket 3.8 17:30:42 10° SSE 17:34:54 48° E 17:39:10 10° NNE
Meteor 2-5 Rocket 3.9 17:30:44 10° NNW 17:36:25 79° W 17:41:58 10° S
STARLINK-1094 3.6 17:33:21 10° NW 17:37:22 68° NNE 17:40:31 16° ESE
Cosmos 2237 Rocket 2.6 17:33:06 10° SW 17:38:42 68° WNW 17:44:20 10° NNE
ERBS 4.1 17:35:47 10° W 17:38:50 30° NNW 17:41:53 10° NE
STARLINK-1200 3.5 17:34:58 10° SW 17:38:58 69° SE 17:43:00 10° ENE
STARLINK-1118 3.7 17:38:31 10° WNW 17:40:30 28° SW 17:42:07 13° SSE
HJ-1C 4.3 17:37:25 10° S 17:40:40 51° W 17:43:58 10° NNW
STARLINK-1117 3.6 17:37:51 10° NW 17:41:53 73° NNE 17:44:51 17° ESE
STARLINK-1192 3.5 17:39:34 10° SW 17:43:36 75° SE 17:47:39 10° ENE
Cosmos 1302 Rocket 4.3 17:39:36 10° NNW 17:44:46 52° ENE 17:49:26 12° SE
Cosmos 2278 Rocket 3.6 17:40:06 10° NW 17:45:22 40° WSW 17:50:37 10° S
Cosmos 1805 4.0 17:41:33 10° SSW 17:45:24 56° WNW 17:49:16 10° N
STARLINK-1078 3.5 17:42:20 10° WNW 17:46:22 78° NNE 17:49:10 19° ESE
CZ-2C R/B 3.5 17:42:39 10° NE 17:46:51 24° E 17:51:01 10° SSE
Cosmos 1269 Rocket 4.0 17:42:15 10° S 17:47:30 69° ESE 17:52:47 10° NNE
STARLINK-1244 3.5 17:44:20 10° SW 17:48:23 80° SE 17:52:26 10° ENE
STARLINK-1108 3.5 17:46:52 10° WNW 17:50:53 83° NNE 17:53:31 21° ESE
STARLINK-1201 3.5 17:48:31 10° WSW 17:51:45 60° NNW 17:54:56 10° NE
Meteor 1-24 Rocket 3.8 17:46:30 10° NNW 17:52:04 79° W 17:57:24 10° S
ARGOS 3.1 17:47:20 10° SSE 17:52:44 79° ENE 17:58:08 10° NNW
STARLINK-1138 3.5 17:49:01 10° SW 17:53:04 86° SSE 17:57:07 10° ENE
STARLINK-1071 3.5 17:51:21 10° WNW 17:55:24 88° NNE 17:57:51 23° ESE
MOS 1 4.3 17:50:11 10° SSE 17:55:50 88° ENE 18:01:32 10° NNW
STARLINK-1124 3.6 17:51:52 10° WNW 17:56:01 89° NNE 17:58:34 23° ESE
SL-8 R/B 4.1 17:51:39 10° W 17:56:23 61° N 18:00:03 16° ENE
STARLINK-1143 3.5 17:53:47 10° WSW 17:57:50 89° NNW 18:01:42 11° ENE
SL-24 R/B 4.4 17:53:57 10° NNE 17:58:21 41° E 18:02:12 10° SSE
STARLINK-1066 3.3 17:55:25 10° WNW 17:58:31 55° SW 18:00:08 24° SSE
STARLINK-1209 4.0 17:55:49 10° W 17:58:34 37° NNW 18:01:00 12° NE
STARLINK-1081 3.3 17:55:53 10° WNW 17:58:57 54° SW 18:00:31 25° SSE
STARLINK-1228 4.0 17:56:41 10° W 17:59:23 37° NNW 18:01:47 12° NE
STARLINK-1070 3.3 17:56:19 10° WNW 17:59:23 54° SW 18:00:56 25° SSE
STARLINK-1069 3.4 17:56:44 10° WNW 17:59:49 53° SW 18:01:24 25° SSE
STARLINK-1110 3.5 17:55:52 10° WNW 17:59:55 87° SSW 18:02:11 25° SE
Cosmos 2315 Rocket 4.0 17:53:56 10° S 18:00:11 69° E 18:06:30 10° NNE
STARLINK-1085 3.4 17:57:11 10° WNW 18:00:16 53° SW 18:01:50 25° SSE
STARLINK-1086 3.4 17:57:42 10° WNW 18:00:45 52° SW 18:02:15 25° SSE
STARLINK-1095 3.4 17:58:08 10° WNW 18:01:11 52° SW 18:02:40 25° SSE
STARLINK-1077 3.4 17:58:34 10° WNW 18:01:37 51° SW 18:03:06 26° SSE
STARLINK-1075 3.4 17:59:03 10° WNW 18:02:05 51° SW 18:03:32 26° SSE
STARLINK-1093 3.5 17:59:27 10° WNW 18:02:32 50° SW 18:04:01 26° SSE
STARLINK-1074 3.5 17:59:54 10° WNW 18:02:58 50° SW 18:04:26 26° SSE
STARLINK-1087 3.5 18:00:24 10° WNW 18:03:25 49° SW 18:04:50 26° SSE
STARLINK-1088 3.5 18:00:51 10° WNW 18:03:53 49° SW 18:05:16 26° SSE
STARLINK-1115 3.5 18:01:16 10° WNW 18:04:20 49° SW 18:05:45 26° SSE
STARLINK-1076 3.5 18:01:42 10° WNW 18:04:46 48° SW 18:06:10 26° SSE
STARLINK-1092 3.6 18:02:11 10° WNW 18:05:14 48° SW 18:06:37 27° SSE
Cosmos 1470 2.6 18:01:44 10° S 18:05:32 63° E 18:09:23 10° NNE
MetOp-A 4.2 18:01:08 14° SSE 18:05:41 58° ENE 18:10:57 10° N
STARLINK-1080 3.6 18:02:40 10° WNW 18:05:41 47° SW 18:07:00 27° SSE
STARLINK-1090 3.6 18:03:06 10° WNW 18:06:06 46° SW 18:07:26 27° SSE
STARLINK-1089 3.6 18:03:34 10° WNW 18:06:34 46° SW 18:07:52 27° SSE
STARLINK-1107 3.6 18:04:01 10° WNW 18:07:01 45° SW 18:08:18 27° SSE
SL-08 RB Rocket 3.6 18:02:46 10° SSE 18:07:14 79° ENE 18:11:49 10° N
STARLINK-1119 4.4 18:04:08 10° NW 18:08:05 41° NNE 18:10:09 24° ENE
STARLINK-1241 3.6 18:04:24 10° WSW 18:08:25 76° NNW 18:11:48 14° NE
STARLINK-1122 3.6 18:05:01 10° WNW 18:09:03 76° SSW 18:10:59 29° SE
Resurs 1-3 3.8 18:07:20 23° SE 18:09:53 52° ENE 18:14:10 10° N
SJ-6B 3.0 18:06:47 10° S 18:10:49 77° WSW 18:14:57 10° NNW
CZ-2C R/B 3.3 18:06:49 10° S 18:11:53 67° WSW 18:16:45 10° NNW
STARLINK-1233 4.1 18:09:00 10° W 18:12:00 41° NNW 18:14:11 16° NE
STARLINK-1212 4.1 18:09:28 10° W 18:12:27 41° NNW 18:14:36 16° NE
IRIDIUM 104 4.5 18:07:24 10° N 18:12:30 51° E 18:15:55 20° SSE
STARLINK-1105 4.1 18:09:54 10° W 18:12:54 41° NNW 18:15:02 17° NE
STARLINK-1239 3.7 18:08:59 10° WSW 18:13:00 72° NNW 18:16:12 16° NE
Cosmos 1758 3.2 18:08:58 10° S 18:13:02 71° E 18:17:08 10° NNE
STARLINK-1114 4.4 18:09:08 10° NW 18:13:07 43° NNE 18:14:57 26° ENE
STARLINK-1206 4.1 18:10:24 10° W 18:13:23 40° NNW 18:15:27 17° NE
Cosmos 2369 Rocket 2.9 18:08:17 10° NNW 18:13:36 38° NE 18:16:01 26° E
STARLINK-1126 3.6 18:09:38 10° WNW 18:13:40 71° SW 18:15:25 32° SE
STARLINK-1247 4.1 18:10:51 10° W 18:13:49 40° NNW 18:15:53 17° NE
ISS -2.5 18:10:52 10° NW 18:13:59 33° NNE 18:15:13 25° NE
STARLINK-1227 4.1 18:11:16 10° W 18:14:15 40° NNW 18:16:20 17° NE
STARLINK-1218 4.1 18:11:45 10° W 18:14:43 39° NNW 18:16:44 17° NE
STARLINK-1226 4.1 18:12:14 10° W 18:15:12 39° NNW 18:17:13 17° NE
STARLINK-1254 4.1 18:12:38 10° W 18:15:36 39° NNW 18:17:38 17° NE
STARLINK-1215 4.1 18:13:08 10° W 18:16:05 39° NNW 18:18:03 18° NE
STARLINK-1231 4.2 18:13:34 10° W 18:16:31 38° NNW 18:18:28 18° NE
Meteor 2-15 Rocket 4.4 18:10:59 10° S 18:16:59 66° E 18:23:01 10° NNE
Resurs 01 Rocket 2.0 18:15:31 31° ESE 18:17:06 44° ENE 18:21:18 10° N
STARLINK-1232 4.2 18:14:30 10° W 18:17:26 38° NNW 18:19:21 18° NE
STARLINK-1240 3.8 18:13:36 10° WSW 18:17:37 67° NNW 18:20:37 17° NE
STARLINK-1217 4.2 18:14:57 10° W 18:17:54 38° NNW 18:19:47 18° NE
STARLINK-1130 (DARKSAT) 4.3 18:14:06 10° NW 18:18:06 45° NNE 18:19:43 29° ENE
STARLINK-1082 3.7 18:14:12 10° WNW 18:18:13 66° SW 18:19:48 34° SE
STARLINK-1208 4.2 18:15:22 10° W 18:18:20 38° NNW 18:20:15 18° NE
STARLINK-1229 4.2 18:15:51 10° W 18:18:47 37° NNW 18:20:38 19° NE
STARLINK-1271 4.2 18:16:19 10° W 18:19:16 37° NNW 18:21:06 19° NE
STARLINK-1270 4.2 18:16:46 10° W 18:19:42 37° NNW 18:21:32 19° NE
STARLINK-1154 4.2 18:17:13 10° W 18:20:09 37° NNW 18:21:56 19° NE
STARLINK-1197 4.3 18:18:07 10° W 18:21:03 36° NNW 18:22:49 19° NE
STARLINK-1189 4.3 18:18:35 10° W 18:21:31 36° NNW 18:23:15 19° NE
IRIDIUM 114 4.3 18:16:30 10° N 18:21:41 61° E 18:25:04 22° SSE
STARLINK-1216 3.9 18:18:14 10° WSW 18:22:14 63° NNW 18:25:04 18° NE
STARLINK-1187 4.4 18:19:30 10° W 18:22:24 34° NNW 18:24:10 19° NE
STARLINK-1188 4.3 18:19:30 10° W 18:22:25 36° NNW 18:24:07 20° NE
STARLINK-1198 4.3 18:19:45 10° W 18:22:40 36° NNW 18:24:21 20° NE
STARLINK-1100 3.8 18:18:46 10° WNW 18:22:46 61° SW 18:24:11 36° SSE
STARLINK-1084 4.2 18:19:04 10° NW 18:23:06 47° NNE 18:24:30 33° ENE
Abrixas rocket 3.9 18:21:23 10° SSW 18:22:34 19° SSW 18:22:34 19° SSW
STARLINK-1199 4.3 18:21:26 10° W 18:24:23 35° NNW 18:26:02 20° NE
SPOT 3 Rocket 3.5 18:20:04 14° SSE 18:24:33 89° WSW 18:29:48 10° NNW
STARLINK-1191 4.4 18:21:55 10° W 18:24:50 35° NNW 18:26:29 20° NNE
STARLINK-1210 4.4 18:22:21 10° W 18:25:17 35° NNW 18:26:54 20° NNE
STARLINK-1221 4.4 18:22:49 10° W 18:25:45 35° NNW 18:27:22 20° NNE
Meteor 1-21 Rocket 4.2 18:20:29 10° N 18:26:02 64° ENE 18:29:03 27° SSE
STARLINK-1219 4.4 18:23:16 10° W 18:26:12 35° NNW 18:27:47 21° NNE
Cosmos 1709 Rocket 4.3 18:20:17 10° NNW 18:26:26 65° W 18:32:29 10° S
STARLINK-1222 4.4 18:23:43 10° W 18:26:38 34° NNW 18:28:12 21° NNE
STARLINK-1237 4.0 18:22:55 10° WSW 18:26:54 60° NNW 18:29:33 20° NE
STARLINK-1211 4.4 18:24:11 10° W 18:27:06 34° NNW 18:28:38 21° NNE
STARLINK-1083 3.9 18:23:23 10° WNW 18:27:21 56° SW 18:28:36 38° SSE
STARLINK-1214 4.4 18:24:38 10° W 18:27:33 34° NNW 18:29:05 21° NNE
STARLINK-1245 4.4 18:25:09 10° W 18:28:02 34° NNW 18:29:29 22° NNE
STARLINK-1098 4.1 18:24:02 10° NW 18:28:05 50° NNE 18:29:16 37° ENE
STARLINK-1238 4.4 18:25:34 10° W 18:28:28 34° NNW 18:29:57 21° NNE
Meteor 2-15 4.4 18:22:24 10° S 18:28:28 84° W 18:34:34 10° N
STARLINK-1205 4.4 18:26:31 10° W 18:29:24 33° NNW 18:30:48 22° NNE
STARLINK-1204 4.4 18:26:57 10° W 18:29:49 33° NNW 18:31:13 22° NNE
Cosmos 1726 3.2 18:32:03 30° NE 18:32:03 30° NE 18:34:23 10° NNE
IRIDIUM 103 4.2 18:25:38 10° N 18:30:53 74° E 18:34:14 23° SSE
STARLINK-1202 4.1 18:27:33 10° WSW 18:31:31 56° NNW 18:33:58 22° NE
STARLINK-1125 4.0 18:28:00 10° WNW 18:31:57 52° SW 18:33:02 39° S
Cosmos 2228 4.4 18:34:16 23° NE 18:34:16 23° NE 18:36:31 10° NNE
STARLINK-1123 4.0 18:29:02 10° NW 18:33:06 52° NNE 18:34:05 42° ENE
MOS 1 Rocket 3.5 18:29:02 10° NNE 18:34:14 66° E 18:39:36 10° S
Cosmos 1943 4.2 18:37:49 26° ENE 18:37:49 26° ENE 18:41:03 10° NE
STARLINK-1109 4.1 18:32:18 10° WNW 18:36:13 49° SW 18:37:10 39° S
STARLINK-1246 4.2 18:32:33 10° WSW 18:36:31 53° NNW 18:38:50 23° NE
STARLINK-1097 3.9 18:33:59 10° NW 18:38:04 55° NNE 18:38:50 47° ENE
Cosmos 2074 Rocket 4.0 18:32:41 10° N 18:38:56 66° E 18:42:01 31° SSE
Cosmos 1943 Rocket 2.1 18:33:45 10° NNW 18:39:18 72° ENE 18:41:19 40° SE
Cosmos 292 Rocket 3.8 18:34:44 10° NNW 18:39:30 63° ENE 18:40:35 48° ESE
STARLINK-1091 4.2 18:37:00 10° WNW 18:40:53 45° SW 18:41:39 39° S
STARLINK-1099 3.8 18:38:58 10° NW 18:43:04 59° NNE 18:43:38 53° ENE
NOSS 3-3 (A) 4.0 18:38:52 10° S 18:44:22 46° ESE 18:50:30 10° NE
NOSS 3-3 (C) 4.1 18:39:00 10° S 18:44:28 46° ESE 18:50:35 10° NE
STARLINK-1224 4.4 18:41:36 10° W 18:45:31 48° NNW 18:47:23 27° NE
STARLINK-1104 3.7 18:43:58 10° NW 18:48:04 63° NNE 18:48:25 60° NE
IRIDIUM 106 4.4 18:43:56 10° N 18:49:10 78° W 18:52:26 23° S
STARLINK-1225 4.5 18:46:20 10° W 18:50:14 46° NNW 18:51:55 28° NE
Meteor 2-10 4.0 18:47:40 30° S 18:50:18 70° E 18:55:48 10° NNE
SPOT 1/Viking Rocket 4.3 18:51:29 36° ENE 18:51:36 36° ENE 18:56:19 10° N
SL-16 R/B 3.1 18:47:01 10° SW 18:52:30 49° WNW 18:57:59 10° NNE
STARLINK-1144 3.6 18:48:55 10° NW 18:53:03 67° NNE 18:53:11 66° NE
Spot 2 Rocket 3.6 18:52:55 52° E 18:53:32 55° ENE 18:58:32 10° N
Cosmos 1953 2.4 18:53:53 44° SSW 18:55:01 72° W 18:59:00 10° N
STARLINK-1103 3.6 18:53:53 10° NW 18:57:58 71° NNE 18:57:58 71° NNE
Cosmos 2084 Rocket 3.4 18:54:07 10° NW 18:58:37 82° NE 18:58:46 79° E
Aureole 3 4.2 18:57:25 18° SSW 19:00:12 55° WNW 19:05:07 10° N
STARLINK-1101 3.7 18:58:53 10° WNW 19:02:46 72° N 19:02:46 72° N
H-2A R/B 4.4 19:01:12 10° SW 19:05:13 22° W 19:09:13 10° NW
STARLINK-1102 3.8 19:03:51 10° WNW 19:07:32 68° NW 19:07:32 68° NW
ATLAS 2AS CENTAUR R/B 3.5 19:00:47 10° NNW 19:08:05 43° NE 19:10:15 35° ENE
Terra 3.5 19:10:44 22° NE 19:10:44 22° NE 19:13:18 10° N
Aureole 2 Rocket 3.7 19:08:04 10° NNW 19:10:31 40° NW 19:10:31 40° NW
USA 234 3.6 19:06:05 10° NE 19:12:32 64° NNW 19:18:58 10° WSW
STARLINK-1111 4.0 19:08:49 10° WNW 19:12:19 62° NW 19:12:19 62° NW
Cosmos 1603 3.5 19:12:02 42° SSW 19:14:00 78° ESE 19:19:39 10° NNE
Meteor 1-16 Rocket 4.0 19:12:23 47° SSW 19:14:00 86° W 19:19:29 10° N
Cosmos 2327 Rocket 4.4 19:10:50 10° N 19:17:08 87° E 19:18:40 55° S
STARLINK-1073 4.2 19:13:48 10° WNW 19:17:06 55° WNW 19:17:06 55° WNW
Cosmos 1703 4.3 19:15:05 10° N 19:17:46 42° N 19:17:46 42° N
MetOp-B 4.1 19:19:53 64° SSW 19:20:40 78° WSW 19:26:04 10° NNW
Cosmos 1825 Rocket 3.9 19:16:26 10° NNW 19:20:41 63° W 19:20:41 63° W
STARLINK-1121 4.4 19:18:47 10° WNW 19:21:53 49° WNW 19:21:53 49° WNW
Aureole 1 Rocket 4.5 19:24:44 52° E 19:24:44 52° E 19:31:01 10° NNE
CZ-2C R/B 3.5 19:22:26 10° N 19:27:22 46° WNW 19:32:16 10° SW
COSMOS 2455 4.1 19:22:25 10° NNW 19:27:33 28° NE 19:28:01 27° NE
Meteor 1-11 4.1 19:23:53 10° N 19:29:44 83° E 19:29:47 83° E
Cosmos 1992 Rocket 4.5 19:24:56 10° NNW 19:30:00 52° WSW 19:30:33 49° SW
Cosmos 1295 Rocket 4.3 19:25:38 10° N 19:31:55 79° E 19:32:15 76° ESE
Meteor 2-17 Rocket 4.4 19:30:03 10° N 19:36:13 79° W 19:36:56 69° SSW
Cosmos 1953 Rocket 4.3 19:32:01 10° NNW 19:35:31 51° NW 19:35:31 51° NW
Cosmos 2251 Rocket 4.3 19:31:16 10° SW 19:36:28 50° WNW 19:41:44 10° NNE
SL-8 R/B 4.4 19:34:24 10° WNW 19:38:02 52° WNW 19:38:02 52° WNW
Cosmos 1656 Rocket 3.7 19:36:02 10° NNW 19:41:14 73° N 19:41:14 73° N
ERS-1 Rocket 3.6 19:48:48 52° N 19:48:48 52° N 19:52:37 10° NNW
Cosmos 2154 Rocket 4.4 19:44:15 10° NNW 19:50:31 61° W 19:51:33 54° SW
ISS -0.6 19:47:39 10° WNW 19:48:11 14° WNW 19:48:11 14° WNW
Resurs 01 Rocket 3.8 19:53:05 19° WSW 19:53:47 20° W 19:57:02 10° NW
SPOT 5 4.2 19:56:05 31° N 19:56:05 31° N 19:58:24 10° NNW
Cosmos 2369 Rocket 3.2 19:52:25 10° NW 19:57:36 37° WSW 19:57:50 37° WSW
SL-8 Rocket 4.3 20:06:43 10° N 20:11:56 63° N 20:11:56 63° N
Cosmos 1943 4.2 20:19:28 43° WNW 20:19:59 44° WNW 20:25:26 10° NNE
Cosmos 1943 Rocket 4.2 20:18:51 10° WNW 20:22:24 18° W 20:22:52 17° WSW
NOSS 3-4 (A) 3.9 20:19:38 10° NW 20:25:57 75° NW 20:25:57 75° NW
NOSS 3-4 (C) 3.9 20:19:44 10° NW 20:26:03 75° NW 20:26:03 75° NW
Terra 4.0 20:49:36 23° NW 20:49:36 23° NW 20:51:34 10° NNW
ATLAS 2AS CENTAUR R/B 3.5 20:52:01 10° NW 20:57:41 47° WNW 20:57:41 47° WNW
Cosmos 1980 Rocket 4.4 21:06:31 10° N 21:09:09 18° NNE 21:09:09 18° NNE
COSMOS 2455 4.3 21:08:00 10° NW 21:11:09 32° NW 21:11:09 32° NW
CZ-4C R/B 3.8 22:00:48 10° NNW 22:06:33 41° NNE 22:06:33 41° NNE
Cosmos 2344 4.5 22:08:56 10° NW 22:18:22 68° NE 22:20:04 62° E
SL-16 R/B 4.3 22:26:41 10° N 22:29:37 21° NNE 22:29:37 21° NNE
Cosmos 2322 Rocket 4.3 22:41:38 10° N 22:44:37 22° NNE 22:44:37 22° NNE
Cosmos 1980 Rocket 4.5 22:49:36 10° NNW 22:50:55 18° NNW 22:50:55 18° NNW
Cosmos 2082 Rocket 4.1 23:15:19 26° NNE 23:15:19 26° NNE 23:17:46 10° NNE
SL-16 R/B 3.7 23:21:37 39° NNE 23:21:37 39° NNE 23:25:51 10° N
USA 267 4.3 23:38:01 10° ENE 23:42:05 37° E 23:42:05 37° E
